Gage, OK

5:27 AM CDT on May 26, 2018 (GMT -0500)
Gage

Weather History for KGAG - March, 2013

Change the Weather History Date:

Thursday, March 7, 2013

  Actual Average Record
Temperature  
Mean Temperature 54 °F -  
Max Temperature 71 °F 60 °F 83 °F (1974)
Min Temperature 37 °F 29 °F 6 °F (1967)
Degree Days  
Heating Degree Days 11    
Growing Degree Days 4 (Base 50)    
Moisture  
Dew Point 25 °F    
Average Humidity 36    
Maximum Humidity 53    
Minimum Humidity 19    
Precipitation  
Precipitation 0.00 in - - ()
Sea Level Pressure  
Sea Level Pressure 29.96 in    
Wind  
Wind Speed 19 mph (South)    
Max Wind Speed 26 mph    
Max Gust Speed 37 mph    
Visibility 10 miles    
Events      
Averages and records for this station are not official NWS values.
T = Trace of Precipitation, MM = Missing Value Source: NWS Daily Summary

Daily Weather History Graph

Daily Weather History Graph

Search for Another Location

Airport or City:

Astronomy

Mar. 07, 2013 Rise Set
Actual Time 7:00 AM CST 6:39 PM CST
Civil Twilight 6:35 AM CST 7:05 PM CST
Nautical Twilight 6:05 AM CST 7:35 PM CST
Astronomical Twilight 5:35 AM CST 8:05 PM CST
Moon 3:55 AM CST (3/7) 2:35 PM CST (3/7)
Length of Visible Light 12h 30m
Length of Day
11h 38m
Waning Crescent, 20% of the Moon is Illuminated
Mar 7
Waning Crescent
Mar 11
New
Mar 19
First Quarter
Mar 27
Full
Apr 2
Last Quarter

Hourly Weather History & Observations

Time (CST) Temp. Windchill Dew Point Humidity Pressure Visibility Wind Dir Wind Speed Gust Speed Precip Events Conditions
12:53 AM 39.0 °F 30.3 °F 23.0 °F 53% 30.04 in 10.0 mi South 16.1 mph - N/A   Clear
1:53 AM 37.9 °F 28.5 °F 21.9 °F 53% 30.04 in 10.0 mi South 17.3 mph - N/A   Clear
2:53 AM 39.0 °F 30.3 °F 21.0 °F 49% 30.02 in 10.0 mi South 16.1 mph - N/A   Clear
3:53 AM 39.0 °F 29.0 °F 19.9 °F 46% 29.99 in 10.0 mi South 20.7 mph 28.8 mph N/A   Clear
4:53 AM 37.9 °F 28.2 °F 19.9 °F 48% 29.99 in 10.0 mi South 18.4 mph 23.0 mph N/A   Clear
5:53 AM 37.0 °F 27.7 °F 19.9 °F 50% 30.00 in 10.0 mi South 16.1 mph - N/A   Clear
6:53 AM 37.0 °F 26.4 °F 19.9 °F 50% 30.00 in 10.0 mi South 20.7 mph 25.3 mph N/A   Clear
7:53 AM 39.0 °F 30.3 °F 21.0 °F 49% 30.03 in 10.0 mi SSW 16.1 mph 21.9 mph N/A   Clear
8:53 AM 44.1 °F 35.7 °F 21.0 °F 40% 30.02 in 10.0 mi South 20.7 mph 27.6 mph N/A   Clear
9:53 AM 50.0 °F - 21.9 °F 33% 30.01 in 10.0 mi South 21.9 mph - N/A   Clear
10:53 AM 57.0 °F - 23.0 °F 27% 29.99 in 10.0 mi South 20.7 mph 31.1 mph N/A   Clear
11:53 AM 61.0 °F - 24.1 °F 24% 29.98 in 10.0 mi South 20.7 mph 28.8 mph N/A   Clear
12:53 PM 66.0 °F - 25.0 °F 21% 29.95 in 10.0 mi South 20.7 mph - N/A   Clear
1:53 PM 69.1 °F - 26.1 °F 20% 29.92 in 10.0 mi South 20.7 mph 27.6 mph N/A   Clear
2:53 PM 70.0 °F - 26.1 °F 19% 29.90 in 10.0 mi South 23.0 mph 29.9 mph N/A   Clear
3:53 PM 71.1 °F - 27.0 °F 19% 29.88 in 10.0 mi South 25.3 mph 34.5 mph N/A   Clear
4:53 PM 70.0 °F - 27.0 °F 20% 29.88 in 10.0 mi South 25.3 mph 36.8 mph N/A   Clear
5:53 PM 66.9 °F - 28.0 °F 23% 29.89 in 10.0 mi SSE 20.7 mph - N/A   Clear
6:53 PM 61.0 °F - 28.0 °F 29% 29.93 in 10.0 mi South 18.4 mph - N/A   Clear
7:53 PM 59.0 °F - 30.9 °F 35% 29.93 in 10.0 mi South 23.0 mph - N/A   Clear
8:53 PM 57.9 °F - 30.0 °F 35% 29.92 in 10.0 mi South 26.5 mph 35.7 mph N/A   Clear
9:53 PM 55.9 °F - 30.0 °F 37% 29.92 in 10.0 mi South 24.2 mph 32.2 mph N/A   Clear
10:53 PM 53.1 °F - 30.0 °F 41% 29.92 in 10.0 mi South 21.9 mph 31.1 mph N/A   Clear
11:53 PM 54.0 °F - 34.0 °F 47% 29.93 in 10.0 mi South 12.7 mph 24.2 mph N/A   Clear